Météo par heure à Jumièges

Ce jour, 20 Juin, Dimanche

Heure Température Précipitation Vent Pression Humidité
00:00 +13°C° 0.5 mm 3 m/s 749 mmHg 97%
01:00 +13°C° 0 mm 3 m/s 749 mmHg 97%
02:00 +13°C° 0 mm 3 m/s 749 mmHg 97%
03:00 +13°C° 0 mm 3 m/s 749 mmHg 97%
04:00 +13°C° 0 mm 3 m/s 749 mmHg 96%
05:00 +14°C° 0 mm 4 m/s 749 mmHg 95%
06:00 +14°C° 0 mm 4 m/s 749 mmHg 94%
07:00 +16°C° 0 mm 3 m/s 750 mmHg 88%
08:00 +18°C° 0 mm 3 m/s 750 mmHg 82%
09:00 +19°C° 0 mm 3 m/s 750 mmHg 75%
10:00 +20°C° 0 mm 2 m/s 749 mmHg 72%
11:00 +21°C° 0 mm 2 m/s 749 mmHg 68%
12:00 +22°C° 0 mm 1 m/s 749 mmHg 65%
13:00 +23°C° 0.2 mm 2 m/s 748 mmHg 66%
14:00 +23°C° 0.2 mm 2 m/s 748 mmHg 67%
15:00 +22°C° 0.2 mm 3 m/s 748 mmHg 68%
16:00 +21°C° 0.4 mm 3 m/s 747 mmHg 74%
17:00 +20°C° 0.4 mm 3 m/s 747 mmHg 80%
18:00 +19°C° 0.4 mm 3 m/s 747 mmHg 86%
19:00 +18°C° 1.9 mm 3 m/s 747 mmHg 89%
20:00 +17°C° 1.9 mm 3 m/s 747 mmHg 93%
21:00 +16°C° 1.9 mm 2 m/s 748 mmHg 97%
22:00 +16°C° 2.1 mm 3 m/s 747 mmHg 98%
23:00 +16°C° 2.1 mm 3 m/s 747 mmHg 98%

Demain, 21 Juin, Lundi

Heure Température Précipitation Vent Pression Humidité
00:00 +16°C° 2.1 mm 3 m/s 747 mmHg 98%
01:00 +16°C° 0.5 mm 3 m/s 747 mmHg 98%
02:00 +16°C° 0.5 mm 3 m/s 747 mmHg 98%
03:00 +16°C° 0.5 mm 3 m/s 747 mmHg 98%
04:00 +16°C° 0.3 mm 3 m/s 747 mmHg 97%
05:00 +17°C° 0.3 mm 3 m/s 747 mmHg 96%
06:00 +17°C° 0.3 mm 2 m/s 748 mmHg 95%
07:00 +18°C° 0 mm 2 m/s 748 mmHg 90%
08:00 +19°C° 0 mm 2 m/s 748 mmHg 85%
09:00 +20°C° 0 mm 2 m/s 748 mmHg 79%
10:00 +20°C° 0.2 mm 2 m/s 749 mmHg 76%
11:00 +21°C° 0.2 mm 2 m/s 749 mmHg 73%
12:00 +21°C° 0.2 mm 2 m/s 749 mmHg 70%
13:00 +21°C° 0.5 mm 2 m/s 749 mmHg 69%
14:00 +23°C° 0.5 mm 1 m/s 749 mmHg 69%
15:00 +23°C° 0.5 mm 1 m/s 749 mmHg 69%
16:00 +22°C° 0.9 mm 1 m/s 749 mmHg 73%
17:00 +22°C° 0.9 mm 1 m/s 749 mmHg 78%
18:00 +21°C° 0.9 mm 1 m/s 749 mmHg 83%
19:00 +20°C° 0.4 mm 1 m/s 749 mmHg 85%
20:00 +18°C° 0.4 mm 1 m/s 749 mmHg 87%
21:00 +16°C° 0.4 mm 1 m/s 749 mmHg 89%
22:00 +16°C° 0.2 mm 2 m/s 750 mmHg 91%
23:00 +15°C° 0.2 mm 2 m/s 750 mmHg 93%

Après-demain, 22 Juin, Mardi

Heure Température Précipitation Vent Pression Humidité
00:00 +15°C° 0.2 mm 2 m/s 750 mmHg 95%
01:00 +13°C° 0.2 mm 3 m/s 750 mmHg 96%
02:00 +13°C° 0.2 mm 3 m/s 750 mmHg 96%
03:00 +13°C° 0.2 mm 4 m/s 750 mmHg 97%
04:00 +13°C° 0.3 mm 4 m/s 751 mmHg 96%
05:00 +14°C° 0.3 mm 4 m/s 751 mmHg 96%
06:00 +14°C° 0.3 mm 4 m/s 751 mmHg 96%
07:00 +14°C° 0.3 mm 4 m/s 752 mmHg 96%
08:00 +14°C° 0.3 mm 5 m/s 752 mmHg 96%
09:00 +14°C° 0.3 mm 5 m/s 753 mmHg 96%
10:00 +14°C° 0.1 mm 5 m/s 753 mmHg 96%
11:00 +14°C° 0.1 mm 5 m/s 753 mmHg 95%
12:00 +14°C° 0.1 mm 5 m/s 754 mmHg 94%
13:00 +14°C° 0.1 mm 6 m/s 754 mmHg 92%
14:00 +15°C° 0.1 mm 6 m/s 754 mmHg 90%
15:00 +15°C° 0.1 mm 6 m/s 755 mmHg 88%
16:00 +14°C° 0 mm 6 m/s 755 mmHg 88%
17:00 +14°C° 0 mm 6 m/s 756 mmHg 88%
18:00 +14°C° 0 mm 6 m/s 756 mmHg 88%
19:00 +13°C° 0.1 mm 5 m/s 756 mmHg 88%
20:00 +13°C° 0.1 mm 5 m/s 757 mmHg 87%
21:00 +12°C° 0.1 mm 5 m/s 757 mmHg 87%
22:00 +12°C° 0.1 mm 5 m/s 757 mmHg 86%
23:00 +12°C° 0.1 mm 5 m/s 757 mmHg 86%

23 Juin, Mercredi

Heure Température Précipitation Vent Pression Humidité
00:00 +12°C° 0.1 mm 4 m/s 757 mmHg 85%
01:00 +12°C° 0 mm 4 m/s 757 mmHg 85%
02:00 +12°C° 0 mm 4 m/s 758 mmHg 85%
03:00 +12°C° 0 mm 4 m/s 758 mmHg 84%
04:00 +12°C° 0.1 mm 4 m/s 758 mmHg 85%
05:00 +12°C° 0.1 mm 3 m/s 758 mmHg 85%
06:00 +12°C° 0.1 mm 3 m/s 758 mmHg 85%
07:00 +12°C° 0 mm 4 m/s 758 mmHg 83%
08:00 +13°C° 0 mm 4 m/s 758 mmHg 80%
09:00 +14°C° 0 mm 4 m/s 758 mmHg 78%
10:00 +14°C° 0 mm 4 m/s 758 mmHg 76%
11:00 +15°C° 0 mm 4 m/s 758 mmHg 73%
12:00 +17°C° 0 mm 3 m/s 758 mmHg 71%
13:00 +15°C° 0 mm 4 m/s 758 mmHg 72%
14:00 +15°C° 0 mm 4 m/s 758 mmHg 74%
15:00 +15°C° 0 mm 4 m/s 758 mmHg 75%
16:00 +15°C° 0.2 mm 4 m/s 758 mmHg 78%
17:00 +14°C° 0.2 mm 4 m/s 758 mmHg 81%
18:00 +13°C° 0.2 mm 3 m/s 758 mmHg 84%
19:00 +13°C° 0 mm 3 m/s 758 mmHg 86%
20:00 +12°C° 0 mm 3 m/s 759 mmHg 87%
21:00 +12°C° 0 mm 2 m/s 759 mmHg 89%
22:00 +12°C° 0 mm 2 m/s 759 mmHg 89%
23:00 +10°C° 0 mm 2 m/s 759 mmHg 90%

24 Juin, Jeudi

Heure Température Précipitation Vent Pression Humidité
00:00 +10°C° 0 mm 2 m/s 759 mmHg 90%
01:00 +10°C° 0 mm 2 m/s 759 mmHg 90%
02:00 +10°C° 0 mm 2 m/s 758 mmHg 90%
03:00 +10°C° 0 mm 2 m/s 758 mmHg 90%
04:00 +12°C° 0 mm 2 m/s 758 mmHg 89%
05:00 +12°C° 0 mm 2 m/s 758 mmHg 87%
06:00 +13°C° 0 mm 2 m/s 759 mmHg 85%
07:00 +14°C° 0 mm 2 m/s 759 mmHg 79%
08:00 +15°C° 0 mm 2 m/s 759 mmHg 73%
09:00 +16°C° 0 mm 3 m/s 759 mmHg 67%
10:00 +17°C° 0 mm 3 m/s 759 mmHg 63%
11:00 +18°C° 0 mm 3 m/s 759 mmHg 59%
12:00 +19°C° 0 mm 3 m/s 759 mmHg 55%
13:00 +19°C° 0 mm 3 m/s 759 mmHg 54%
14:00 +19°C° 0 mm 3 m/s 759 mmHg 53%
15:00 +19°C° 0 mm 3 m/s 759 mmHg 52%
16:00 +18°C° 0 mm 3 m/s 759 mmHg 57%
17:00 +18°C° 0 mm 3 m/s 759 mmHg 62%
18:00 +17°C° 0 mm 3 m/s 759 mmHg 67%
19:00 +15°C° 0 mm 2 m/s 760 mmHg 74%
20:00 +14°C° 0 mm 2 m/s 760 mmHg 82%
21:00 +12°C° 0 mm 2 m/s 760 mmHg 89%
22:00 +11°C° 0 mm 1 m/s 760 mmHg 89%
23:00 +11°C° 0 mm 1 m/s 760 mmHg 90%

25 Juin, Vendredi

Heure Température Précipitation Vent Pression Humidité
00:00 +11°C° 0 mm 1 m/s 760 mmHg 90%
01:00 +10°C° 0 mm 1 m/s 760 mmHg 90%
02:00 +10°C° 0 mm 1 m/s 760 mmHg 90%
03:00 +10°C° 0 mm 1 m/s 760 mmHg 90%
04:00 +11°C° 0 mm 1 m/s 760 mmHg 89%
05:00 +12°C° 0 mm 1 m/s 760 mmHg 87%
06:00 +13°C° 0 mm 1 m/s 760 mmHg 86%
07:00 +14°C° 0 mm 1 m/s 760 mmHg 80%
08:00 +16°C° 0 mm 1 m/s 760 mmHg 73%
09:00 +18°C° 0 mm 2 m/s 760 mmHg 67%
10:00 +19°C° 0 mm 2 m/s 760 mmHg 63%
11:00 +20°C° 0 mm 2 m/s 760 mmHg 59%
12:00 +22°C° 0 mm 1 m/s 760 mmHg 54%
13:00 +22°C° 0 mm 1 m/s 760 mmHg 54%
14:00 +22°C° 0 mm 1 m/s 760 mmHg 53%
15:00 +22°C° 0 mm 1 m/s 759 mmHg 52%
16:00 +22°C° 0 mm 1 m/s 759 mmHg 58%
17:00 +20°C° 0 mm 2 m/s 759 mmHg 64%
18:00 +20°C° 0 mm 2 m/s 759 mmHg 70%
19:00 +18°C° 0 mm 2 m/s 759 mmHg 76%
20:00 +16°C° 0 mm 2 m/s 759 mmHg 83%
21:00 +14°C° 0 mm 2 m/s 760 mmHg 89%
22:00 +14°C° 0 mm 2 m/s 759 mmHg 89%
23:00 +14°C° 0 mm 2 m/s 759 mmHg 88%
Voir plus

Nous avons besoin de votre consentement

Meteoprog et ses fournisseurs de services peuvent stocker et accéder à des données personnelles telles que des cookies, des identifiants d'appareils ou d'autres technologies similaires sur votre appareil et traiter ces données pour personnaliser le contenu et les publicités, ainsi que pour fournir des fonctionnalités de médias sociaux et analyser le trafic.

  • Stocker et/ou accéder à des informations sur votre appareil

    Des cookies, des identifiants d'appareils ou d'autres informations peuvent être stockés ou accessibles sur votre appareil aux fins indiquées ci-dessus.

  • Annonces et contenus personnalisés, mesure des annonces et des contenus, connaissance de l'audience et développement de produits

    Les annonces et le contenu peuvent être personnalisés en fonction d'un profil. D'autres données peuvent être ajoutées pour mieux personnaliser les annonces et le contenu. Les performances des publicités et du contenu peuvent être mesurées. Il est possible d'obtenir des informations sur le public qui a vu les publicités et le contenu. Ces données peuvent être utilisées pour développer ou améliorer l'expérience de l'utilisateur, les systèmes et les logiciels.

En cliquant sur "J'accepte", vous autorisez l'utilisation de cookies, des identifiants d'appareils, des balises web ou d'autres technologies similaires. Vos paramètres peuvent être modifiés dans le navigateur de votre appareil.

Dans certains cas, des intérêts légitimes peuvent être invoqués plutôt qu'un consentement. Vous pouvez en savoir plus à ce sujet dans notre Politique de confidentialité et de cookies.